Weather History for Madison, MN

Change the Weather History Date:

Tuesday, February 26, 2013

  Actual Average (KAQP) Record (KAQP)
Temperature  
Mean Temperature 20 °F -  
Max Temperature 24 °F 26 °F 50 °F (1998)
Min Temperature 17 °F 11 °F -9 °F (2011)
Degree Days  
Heating Degree Days 44    
Moisture  
Dew Point 19 °F    
Average Humidity 92    
Maximum Humidity 93    
Minimum Humidity 86    
Precipitation  
Precipitation 0.00 in - - ()
Sea Level Pressure  
Sea Level Pressure 30.00 in    
Wind  
Wind Speed 5 mph (NNE)    
Max Wind Speed 17 mph    
Max Gust Speed 18 mph    
Visibility 2 miles    
Events Fog , Snow    
Averages and records for this station are not official NWS values.
T = Trace of Precipitation, MM = Missing Value Source: NWS Daily Summary

Daily Weather History Graph

Daily Weather History Graph

Search for Another Location

Airport:

Trip Planner

Search our weather history database for the weather conditions in past years. The results will help you decide how hot, cold, wet, or windy it might be!

Date:

Astronomy

Feb. 26, 2013 Rise Set
Actual Time 7:07 AM CST 6:08 PM CST
Civil Twilight 6:37 AM CST 6:38 PM CST
Nautical Twilight 6:03 AM CST 7:12 PM CST
Astronomical Twilight 5:29 AM CST 7:46 PM CST
Moon 7:32 PM CST (2/26) 7:05 AM CST (2/26)
Length of Visible Light 12h 00m
Length of Day
11h 01m
Full, 99% of the Moon is Illuminated
Feb 26
Full
Mar 4
Last Quarter
Mar 11
New
Mar 19
First Quarter
Mar 27
Full

Hourly Weather History & Observations

Time (CST) Temp. Windchill Dew Point Humidity Pressure Visibility Wind Dir Wind Speed Gust Speed Precip Events Conditions
12:14 AM 21.2 °F - 19.4 °F 93% 30.02 in 0.5 mi Calm Calm - N/A Fog Light Freezing Fog
12:33 AM 21.2 °F 16.4 °F 19.4 °F 93% 30.03 in 0.8 mi SE 3.5 mph - N/A   Overcast
12:54 AM 21.2 °F - 19.4 °F 93% 30.03 in 1.0 mi Calm Calm - N/A   Overcast
1:14 AM 21.2 °F 13.6 °F 19.4 °F 93% 30.03 in 1.5 mi ESE 5.8 mph - N/A   Overcast
1:33 AM 21.2 °F 12.6 °F 19.4 °F 93% 30.04 in 2.5 mi ESE 6.9 mph - N/A   Mostly Cloudy
1:54 AM 21.2 °F 12.6 °F 19.4 °F 93% 30.04 in 3.0 mi SSE 6.9 mph - N/A   Scattered Clouds
2:14 AM 21.2 °F 12.6 °F 19.4 °F 93% 30.05 in 4.0 mi SSE 6.9 mph - N/A   Clear
2:33 AM 21.2 °F 16.4 °F 17.6 °F 86% 30.04 in 4.0 mi SE 3.5 mph - N/A   Scattered Clouds
2:54 AM 19.4 °F 11.5 °F 17.6 °F 93% 30.03 in 5.0 mi ESE 5.8 mph - N/A   Mostly Cloudy
3:14 AM 19.4 °F 14.3 °F 17.6 °F 93% 30.02 in 5.0 mi East 3.5 mph - N/A   Mostly Cloudy
3:33 AM 19.4 °F 11.5 °F 17.6 °F 93% 30.01 in 4.0 mi East 5.8 mph - N/A   Scattered Clouds
3:54 AM 19.4 °F 11.5 °F 17.6 °F 93% 30.01 in 3.0 mi East 5.8 mph - N/A   Clear
4:14 AM 19.4 °F 12.8 °F 17.6 °F 93% 30.02 in 2.5 mi ESE 4.6 mph - N/A   Mist
4:33 AM 19.4 °F - 17.6 °F 93% 30.02 in 1.0 mi Calm Calm - N/A   Overcast
4:54 AM 19.4 °F 14.3 °F 17.6 °F 93% 30.01 in 1.0 mi SE 3.5 mph - N/A   Overcast
5:14 AM 19.4 °F - 17.6 °F 93% 30.00 in 0.2 mi Calm Calm - N/A Fog Light Freezing Fog
5:33 AM 19.4 °F 12.8 °F 17.6 °F 93% 29.99 in 0.2 mi East 4.6 mph - N/A Fog Light Freezing Fog
5:54 AM 19.4 °F 14.3 °F 17.6 °F 93% 30.00 in 0.2 mi East 3.5 mph - N/A Fog Light Freezing Fog
6:14 AM 19.4 °F - 17.6 °F 93% 30.00 in 0.2 mi Calm Calm - N/A Fog Light Freezing Fog
6:33 AM 19.4 °F - 17.6 °F 93% 30.00 in 0.2 mi Calm Calm - N/A Fog Light Freezing Fog
6:54 AM 19.4 °F - 17.6 °F 93% 30.00 in 0.2 mi Calm Calm - N/A Fog Light Freezing Fog
7:14 AM 19.4 °F - 17.6 °F 93% 30.01 in 0.2 mi Calm Calm - N/A Fog Light Freezing Fog
7:33 AM 19.4 °F - 17.6 °F 93% 30.01 in 0.2 mi Calm Calm - N/A Fog Light Freezing Fog
7:54 AM 19.4 °F - 17.6 °F 93% 30.01 in 0.2 mi Calm Calm - N/A Fog Light Freezing Fog
8:14 AM 19.4 °F - 17.6 °F 93% 30.01 in 0.2 mi Calm Calm - N/A Fog Light Freezing Fog
8:33 AM 19.4 °F - 17.6 °F 93% 30.01 in 0.2 mi Calm Calm - N/A Fog Light Freezing Fog
8:54 AM 19.4 °F - 17.6 °F 93% 30.01 in 0.2 mi Calm Calm - N/A Fog Light Freezing Fog
9:14 AM 21.2 °F - 17.6 °F 86% 30.01 in 0.2 mi Calm Calm - N/A Fog Light Freezing Fog
9:33 AM 21.2 °F - 19.4 °F 93% 30.01 in 0.2 mi Calm Calm - N/A Fog Light Freezing Fog
9:54 AM 21.2 °F - 19.4 °F 93% 30.01 in 0.2 mi Calm Calm - N/A Fog Light Freezing Fog
10:14 AM 21.2 °F 16.4 °F 19.4 °F 93% 30.02 in 0.2 mi East 3.5 mph - N/A Fog Light Freezing Fog
10:33 AM 21.2 °F 16.4 °F 19.4 °F 93% 30.03 in 0.2 mi East 3.5 mph - N/A Fog Light Freezing Fog
10:54 AM 21.2 °F 16.4 °F 19.4 °F 93% 30.02 in 0.2 mi NNE 3.5 mph - N/A Fog Light Freezing Fog
11:14 AM 21.2 °F 16.4 °F 19.4 °F 93% 30.02 in 0.8 mi NNW 3.5 mph - N/A   Overcast
11:33 AM 21.2 °F - 19.4 °F 93% 30.02 in 0.8 mi Calm Calm - N/A   Overcast
11:54 AM 23.0 °F 15.8 °F 21.2 °F 93% 30.02 in 1.2 mi NNE 5.8 mph - N/A   Mostly Cloudy
12:13 PM 23.0 °F 14.7 °F 21.2 °F 93% 30.02 in 1.0 mi NE 6.9 mph - N/A   Mostly Cloudy
12:34 PM 23.0 °F 13.9 °F 21.2 °F 93% 30.01 in 1.5 mi NNE 8.1 mph - N/A   Mostly Cloudy
12:54 PM 23.0 °F 14.7 °F 21.2 °F 93% 30.01 in 1.5 mi NNE 6.9 mph - N/A   Mist
1:13 PM 23.0 °F 13.9 °F 21.2 °F 93% 30.00 in 1.5 mi NNE 8.1 mph - N/A   Mist
1:34 PM 23.0 °F 13.1 °F 21.2 °F 93% 29.99 in 1.5 mi North 9.2 mph - N/A   Mist
1:53 PM 23.0 °F 12.4 °F 21.2 °F 93% 29.98 in 1.8 mi North 10.4 mph - N/A   Mist
2:14 PM 23.0 °F 12.4 °F 21.2 °F 93% 29.98 in 1.8 mi North 10.4 mph - N/A   Mist
2:34 PM 23.0 °F 11.1 °F 21.2 °F 93% 29.97 in 2.0 mi North 12.7 mph - N/A   Mist
2:53 PM 24.8 °F 13.4 °F 21.2 °F 86% 29.97 in 2.5 mi North 12.7 mph - N/A   Mist
3:14 PM 23.0 °F 11.1 °F 21.2 °F 93% 29.97 in 2.5 mi North 12.7 mph - N/A   Mist
3:33 PM 24.8 °F 14.6 °F 21.2 °F 86% 29.98 in 2.5 mi North 10.4 mph - N/A   Mist
3:53 PM 24.8 °F 13.4 °F 21.2 °F 86% 29.97 in 3.0 mi North 12.7 mph - N/A   Mist
4:14 PM 24.8 °F 14.0 °F 21.2 °F 86% 29.98 in 3.0 mi North 11.5 mph - N/A   Mist
4:33 PM 24.8 °F 14.0 °F 21.2 °F 86% 29.98 in 3.0 mi North 11.5 mph - N/A   Mist
4:53 PM 24.8 °F 14.0 °F 21.2 °F 86% 29.98 in 3.0 mi North 11.5 mph - N/A   Mist
5:14 PM 24.8 °F 15.3 °F 21.2 °F 86% 29.99 in 3.0 mi North 9.2 mph - N/A   Mist
5:33 PM 24.8 °F 13.4 °F 21.2 °F 86% 29.98 in 3.0 mi North 12.7 mph - N/A   Mist
5:54 PM 24.8 °F 13.4 °F 21.2 °F 86% 29.98 in 3.0 mi North 12.7 mph - N/A   Scattered Clouds
6:14 PM 23.0 °F 10.6 °F 21.2 °F 93% 29.98 in 4.0 mi North 13.8 mph - N/A   Scattered Clouds
6:33 PM 23.0 °F 10.6 °F 21.2 °F 93% 29.99 in 4.0 mi North 13.8 mph - N/A   Scattered Clouds
6:54 PM 23.0 °F 11.1 °F 21.2 °F 93% 29.99 in 3.0 mi NNW 12.7 mph - N/A   Scattered Clouds
7:14 PM 23.0 °F 10.6 °F 21.2 °F 93% 30.00 in 3.0 mi NNW 13.8 mph - N/A   Mist
7:33 PM 21.2 °F 7.3 °F 19.4 °F 93% 30.01 in 2.5 mi NNW 16.1 mph - N/A   Mist
7:54 PM 21.2 °F 8.3 °F 19.4 °F 93% 30.01 in 2.0 mi North 13.8 mph 18.4 mph N/A   Mostly Cloudy
8:14 PM 21.2 °F 7.8 °F 19.4 °F 93% 30.01 in 2.0 mi NNW 15.0 mph 18.4 mph N/A   Mostly Cloudy
8:33 PM 21.2 °F 7.8 °F 19.4 °F 93% 30.01 in 1.8 mi NNW 15.0 mph 18.4 mph N/A Snow Light Snow
8:54 PM 19.4 °F 8.6 °F 17.6 °F 93% 30.01 in 3.0 mi NW 9.2 mph - N/A Snow Light Snow
9:14 PM 19.4 °F 6.0 °F 17.6 °F 93% 30.01 in 3.0 mi NNW 13.8 mph - N/A   Scattered Clouds
9:33 PM 19.4 °F 6.0 °F 17.6 °F 93% 30.00 in 2.0 mi NNW 13.8 mph - N/A   Mostly Cloudy
9:54 PM 19.4 °F 5.5 °F 17.6 °F 93% 30.00 in 1.5 mi NNW 15.0 mph - N/A   Overcast
10:14 PM 19.4 °F 5.0 °F 17.6 °F 93% 30.00 in 1.5 mi NNW 16.1 mph - N/A   Overcast
10:54 PM 19.4 °F 5.0 °F 17.6 °F 93% 29.99 in 2.0 mi NNW 16.1 mph - N/A   Mostly Cloudy
11:14 PM 19.4 °F 5.5 °F 17.6 °F 93% 29.99 in 2.0 mi NNW 15.0 mph - N/A   Mostly Cloudy
11:33 PM 17.6 °F 2.2 °F 15.8 °F 93% 29.99 in 2.0 mi NNW 17.3 mph - N/A   Mist
11:54 PM 17.6 °F 3.7 °F 15.8 °F 93% 30.00 in 2.5 mi NNW 13.8 mph - N/A   Mist